Regional Weather Roundup
Issued by NWS

Home | Current Version | Previous Version | Text Only | Print | Product List | Glossary On
Versions: 1 2 3 4 5 6 7 8 9 10 11 12 13 14 15 16 17 18 19 20 21 22 23 24 25 26 27 28 29 30 31 32 33 34 35 36 37 38 39 40 41 42 43 44 45 46 47 48 49 50
000
ASUS44 KOUN 181110
RWROK

WEATHER ROUNDUP FOR OKLAHOMA
NATIONAL WEATHER SERVICE NORMAN OK
500 AM CST MON DEC 18 2017

NOTE: "FAIR" INDICATES FEW OR NO CLOUDS BELOW 12,000 FEET WITH NO
      SIGNIFICANT WEATHER AND/OR OBSTRUCTIONS TO VISIBILITY.

OKZ001>007-009>012-014-015-017-181200-
NORTHWEST OKLAHOMA AND THE PANHANDLE

CITY           SKY/WX    TMP DP  RH WIND       PRES   REMARKS
GAGE           CLOUDY    23  20  88 S10       30.06F WCI  12
GUYMON         CLOUDY    20  18  92 SW7       30.02F WCI  11
ENID/WOODRING  SNOW      32  32 100 CALM      30.10S VSB 1/4
$$

OKZ016-021>023-033>039-044-045-181200-
SOUTHWEST OKLAHOMA

CITY           SKY/WX    TMP DP  RH WIND       PRES   REMARKS
LAWTON/REGL    FOG       39  39 100 E5        30.14S VSB 1/4
LAWTON/FT SILL FOG       38  38 100 CALM      30.12S VSB 1/4
FREDERICK      FOG       33  33 100 NE5       30.10S VSB 1/4 WCI  29
CLINTON        CLEAR     32  30  92 SW9       30.11S WCI  24
HOBART         FOG       35  35 100 W3        30.12S VSB 1/4
ALTUS AFB      FOG       32  32 100 CALM      30.12S VSB 3/4
$$

OKZ018>020-024>031-181200-
CENTRAL OKLAHOMA

CITY           SKY/WX    TMP DP  RH WIND       PRES   REMARKS
OKLAHOMA CITY  FOG       38  38 100 SW8       30.12F VSB 1/8 WCI  32
OKC/WILEY POST FOG       39  39 100 SW8       30.11F VSB 1/4 WCI  33
OKC/TINKER AFB DRZL/FOG  42  42 100 SW9       30.11F VSB 5/8
STILLWATER     CLOUDY    43  41  93 SW7       30.11F FOG
GUTHRIE        FOG       41  41 100 SW7       30.12S VSB 3/4
$$

OKZ008-013-054>072-181200-
NORTHEAST OKLAHOMA

CITY           SKY/WX    TMP DP  RH WIND       PRES   REMARKS
TULSA          CLOUDY    44  42  93 SW7       30.13F
TULSA/JONES    CLOUDY    44  42  93 SW7       30.13F
PONCA CITY     FOG       38  36  92 SW5       30.11S VSB 1/4 WCI  34
BARTLESVILLE   CLOUDY    44  41  89 SW7       30.13S
MUSKOGEE       CLOUDY    43  43 100 W7        30.17S FOG
$$

OKZ032-040>043-046>053-073>077-181200-
SOUTH CENTRAL/SOUTHEAST OKLAHOMA

CITY           SKY/WX    TMP DP  RH WIND       PRES   REMARKS
ARDMORE/DWNTWN CLOUDY    45  43  93 CALM      30.15F FOG
MCALESTER      CLOUDY    47  45  93 S3        30.16F FOG
$$





USA.gov is the U.S. government's official web portal to all federal, state and local government web resources and services.